Tracking 34717 objects as of 14-Jul-2026
HD Live streaming from Space Station
objects crossing your sky now

TOMORROW-S3

Track TOMORROW-S3 now!
10-day predictions


NORAD ID: 62392
Int'l Code: 2024-247R
Perigee: 483.7 km
Apogee: 485.6 km
Inclination: 45.0 °
Period: 94.2 minutes
Semi major axis: 6855 km
RCS: Unknown
Launch date: December 21, 2024
Source: United States (US)
Launch site: AIR FORCE WESTERN TEST RANGE (AFWTR)
Your satellite tracking list
Your tracking list is empty




NASA's NSSDC Master Catalog

Two Line Element Set (TLE):
1 62392U 24247R   26194.95203771  .00004810  00000-0  17570-3 0  9993
2 62392  44.9992 146.6233 0001433 118.9249 241.1779 15.29427986 87055
Source of the keplerian elements: AFSPC